Hourly Data Report for August 15, 2019

QUALICUM BEACH AIRPORT
BRITISH COLUMBIA
Current Station Operator: ECCC - MSC

49°20'14.000" N
124°23'38.000" W
58.20 m
1026562
71766
VOQ

Download Data

Hourly Data (August 2019)
Hourly Data Report for August 15, 2019
TIME
LST
Temp Definition
°C
Dew Point Definition
°C
Rel Hum Definition
%
Precip. Amount Definition
mm

Wind Dir Definition
10's deg

Wind Spd Definition
km/h
Visibility Definition
km
Stn Press Definition
kPa
Hmdx Definition


Wind Chill Definition


Weather Definition


00:00 20.2 12.5 61 0.0 29 9   101.46     LegendNANA
01:00 17.2 12.9 76 0.0 28 3   101.48     LegendNANA
02:00 16.1 12.7 80 0.0 25 4   101.48     LegendNANA
03:00 16.5 12.4 77 0.0 28 6   101.48     LegendNANA
04:00 15.3 12.0 81 0.0 27 3   101.49     LegendNANA
05:00 14.0 11.6 86 0.0 25 4   101.52     LegendNANA
06:00 14.4 11.7 84 0.0 28 2   101.54     LegendNANA
07:00 18.4 12.1 67 0.0 29 6   101.57     LegendNANA
08:00 18.8 11.9 64 0.0 31 9   101.58     LegendNANA
09:00 19.6 11.5 60 0.0 33 12   101.57     LegendNANA
10:00 20.7 12.4 59 0.0 34 7   101.57     LegendNANA
11:00 21.6 12.4 56 0.0 35 7   101.53     LegendNANA
12:00 23.1 12.4 51 0.0 2 9   101.47 26   LegendNANA
13:00 23.1 10.9 46 0.0 35 8   101.41 25   LegendNANA
14:00 24.6 10.2 40 0.0 36 7   101.36 26   LegendNANA
15:00 25.5 10.0 38 0.0 32 12   101.30 27   LegendNANA
16:00 25.5 10.2 38 0.0 31 11   101.24 27   LegendNANA
17:00 25.3 9.3 36 0.0 33 12   101.22 26   LegendNANA
18:00 25.1 8.9 36 0.0 32 10   101.17 26   LegendNANA
19:00 23.7 10.4 43 0.0 31 10   101.17 25   LegendNANA
20:00 22.1 11.5 51 0.0 29 8   101.18     LegendNANA
21:00 20.7 12.1 58 0.0 29 11   101.23     LegendNANA
22:00 19.4 13.3 67 0.0 30 14   101.22     LegendNANA
23:00 18.5 13.2 71 0.0 32 16   101.24     LegendNANA

Notes on Data Quality.

Legend

  • E = Estimated
  • M = Missing
  • NA = Not Available*
  • [empty] = Indicates an unobserved value
Date modified: